STARLINK-35114

Last updated on Mon Oct 06 2025 00:02:05 GMT+0000 (Coordinated Universal Time)

1 65502U 25198L 25278.50001156 -.00449189 00000+0 -84913-2 0 9998 2 65502 53.1588 280.4903 0001441 76.2095 81.6687 15.49474013 5543

Satellite not in orbit

STARLINK-35114